TITAN 3C TRANSTAGE DEB, 1668

Orbit data source: Space-Track

TITAN 3C TRANSTAGE DEB, 1668 is space debris in LEO originally from a launch on Fri, 15 Oct 1965 UTC launched from the Air Force Eastern Test Range (AFETR). Debris objects in space refer to the collection of defunct objects orbiting the Earth. Examples of debris include non-operational satellites, rocket bodies, and fragments generated from explosions, collisions, or faulty payload assembly.

Loading next visibility...
Identifier
1668, 1965-082AF
Orbit
LEO
Last TLE update
19 hours ago
Origin
Manufacturer
Unknown
Mission
Spacecraft
Bus & Motor
Unknown
Mass
370 kg wet, 370 kg dry
Launch date (UTC)
1965-10-15 (60 years ago)
Launch vehicle
Unknown
Launch site
Air Force Eastern Test Range (AFETR)
Object type
Payload
Rocket body
Debris
Shape & HBR
Unknown
Radar Cross Section
2.800 m², Large (>1 m²)

Expand to show TLE details & history

TLE from 19 hours ago
0 TITAN 3C TRANSTAGE DEB
1 01668U 65082AF  25128.43118741  .00002054  00000-0  25423-3 0  9999
2 01668  32.0664 126.1842 0014757 178.7046 181.3644 14.80949492158264
Epoch: 2025-05-08T10:20Z
Definitive object data (Epoch: 2025-05-08T10:20:54.592Z)
Latitude
0.00004°
Longitude
104.45501°
Altitude
635.292 km
Speed
7.537 km/s
True Right ascension
08h 24m 44s
True Declination
0° 00' 00"
Sunlit
Object was in daylight at TLE epoch
Visualization TLE readout
Latitude
-28.76655°
Longitude
-19.70314°
Altitude
627.316 km
Speed
7.549 km/s
Apparent Right ascension
00h 41m 20s
Apparent Declination
-34° 15' 47"
Sunlit
Object is in daylight
Visualization observer readout
Local Sidereal Time
13:23:07
Azimuth
59.089° ENE
Elevation
-79.942°
Doppler factor
1
Orbital elements
Apogee altitude
640.306 km
Perigee altitude
619.622 km
Semi-major axis
7,008.101 km
Eccentricity
0.0014757
Inclination
32.0664°
RAAN
126.1842°
Arg. of periapsis
178.7046°
True anomaly
181.36038°
Mean anomaly
181.3644°
Eccentric anomaly
181.36239°
Mean motion
3.6995 °/min
BSTAR
0.00025423
Orbital period
97.31 mins
Loading maneuver chart data...
Loading SW <> Apogee altitude chart data...

TITAN 3C TRANSTAGE DEB Visibility forecast

Observer location: undefined°, undefined°

Span
Click to sort rows by Start time (UTC) header in descending order
Start Az.
Max El. time (UTC)
Max El. Az.
Max El.
End time (UTC)
End Az.
7 mins2025-05-09 06:07:29.262Z237.873° WSW2025-05-09 06:10:29.262Z189.135° SSW26.657°2025-05-09 06:14:29.262Z122.977° SE
5 mins2025-05-09 07:51:29.262Z225.06° WSW2025-05-09 07:53:29.262Z190.72° SSW19.114°2025-05-09 07:56:29.262Z149.4° SSE
4 mins2025-05-10 03:02:29.262Z187.442° SSW2025-05-10 03:04:29.262Z157.411° SSE16.308°2025-05-10 03:06:29.262Z128.586° SE
6 mins2025-05-10 04:44:29.262Z217.403° SW2025-05-10 04:46:29.262Z179.034° S25.889°2025-05-10 04:50:29.262Z115.528° SE
|